Crookston, MN

9:28 PM CDT on April 24, 2017 (GMT -0500)
Crookston Municipal-Kirkwood

Weather History for KCKN - May, 2013

Change the Weather History Date:

Friday, May 17, 2013

  Actual Average Record
Temperature  
Mean Temperature 64 °F -  
Max Temperature 73 °F 61 °F 87 °F (2012)
Min Temperature 55 °F 39 °F 28 °F (2002)
Degree Days  
Heating Degree Days 1    
Growing Degree Days 14 (Base 50)    
Moisture  
Dew Point 47 °F    
Average Humidity 56    
Maximum Humidity 82    
Minimum Humidity 35    
Precipitation  
Precipitation 0.00 in - - ()
Sea Level Pressure  
Sea Level Pressure 29.92 in    
Wind  
Wind Speed 13 mph (SE)    
Max Wind Speed 20 mph    
Max Gust Speed 25 mph    
Visibility 10 miles    
Events      
Averages and records for this station are not official NWS values.
T = Trace of Precipitation, MM = Missing Value Source: NWS Daily Summary

Daily Weather History Graph

Daily Weather History Graph

Search for Another Location

Airport or City:

Trip Planner

Search our weather history database for the weather conditions in past years. The results will help you decide how hot, cold, wet, or windy it might be!

Date:

Astronomy

May. 17, 2013 Rise Set
Actual Time 5:45 AM CDT 9:01 PM CDT
Civil Twilight 5:08 AM CDT 9:38 PM CDT
Nautical Twilight 4:19 AM CDT 10:27 PM CDT
Astronomical Twilight 3:17 AM CDT 11:30 PM CDT
Moon 12:32 PM CDT (5/17) 1:42 AM CDT (5/17)
Length of Visible Light 16h 30m
Length of Day
15h 15m
Waxing Crescent, 45% of the Moon is Illuminated
May 17
Waxing Crescent
May 17
First Quarter
May 24
Full
May 31
Last Quarter
Jun 8
New

Hourly Weather History & Observations

Time (CDT) Temp. Dew Point Humidity Pressure Visibility Wind Dir Wind Speed Gust Speed Precip Events Conditions
12:15 AM 55.4 °F 50.0 °F 82% 29.95 in 10.0 mi East 9.2 mph - N/A   Light Drizzle
12:34 AM 57.2 °F 50.0 °F 77% 29.95 in 10.0 mi East 12.7 mph - N/A   Mostly Cloudy
12:55 AM 55.4 °F 50.0 °F 82% 29.95 in 10.0 mi East 16.1 mph - N/A   Scattered Clouds
1:15 AM 57.2 °F 48.2 °F 72% 29.95 in 10.0 mi East 12.7 mph - N/A   Scattered Clouds
1:34 AM 57.2 °F 48.2 °F 72% 29.95 in 10.0 mi East 13.8 mph 20.7 mph N/A   Mostly Cloudy
1:55 AM 55.4 °F 46.4 °F 72% 29.95 in 10.0 mi East 16.1 mph - N/A   Overcast
2:15 AM 55.4 °F 48.2 °F 77% 29.95 in 10.0 mi ENE 8.1 mph - N/A   Overcast
2:34 AM 55.4 °F 48.2 °F 77% 29.95 in 10.0 mi East 11.5 mph - N/A   Overcast
2:55 AM 55.4 °F 46.4 °F 72% 29.95 in 10.0 mi East 12.7 mph - N/A   Overcast
3:15 AM 55.4 °F 46.4 °F 72% 29.96 in 10.0 mi East 10.4 mph - N/A   Overcast
3:34 AM 55.4 °F 46.4 °F 72% 29.96 in 10.0 mi East 13.8 mph 19.6 mph N/A   Overcast
3:55 AM 55.4 °F 46.4 °F 72% 29.96 in 10.0 mi East 10.4 mph - N/A   Overcast
4:15 AM 55.4 °F 46.4 °F 72% 29.96 in 10.0 mi East 15.0 mph - N/A   Overcast
4:34 AM 55.4 °F 44.6 °F 67% 29.95 in 10.0 mi East 15.0 mph - N/A   Overcast
4:55 AM 55.4 °F 44.6 °F 67% 29.95 in 10.0 mi East 10.4 mph - N/A   Overcast
5:14 AM 55.4 °F 44.6 °F 67% 29.94 in 10.0 mi East 12.7 mph 18.4 mph N/A   Overcast
5:34 AM 55.4 °F 44.6 °F 67% 29.95 in 10.0 mi East 13.8 mph 17.3 mph N/A   Overcast
5:55 AM 55.4 °F 42.8 °F 63% 29.94 in 10.0 mi East 13.8 mph - N/A   Overcast
6:14 AM 55.4 °F 42.8 °F 63% 29.95 in 10.0 mi East 11.5 mph 17.3 mph N/A   Overcast
6:34 AM 55.4 °F 42.8 °F 63% 29.95 in 10.0 mi East 11.5 mph 18.4 mph N/A   Overcast
7:14 AM 55.4 °F 41.0 °F 58% 29.95 in 10.0 mi ESE 13.8 mph 20.7 mph N/A   Overcast
7:34 AM 57.2 °F 41.0 °F 55% 29.95 in 10.0 mi ESE 12.7 mph 21.9 mph N/A   Overcast
7:55 AM 55.4 °F 41.0 °F 58% 29.96 in 10.0 mi ESE 13.8 mph 18.4 mph N/A   Overcast
8:14 AM 57.2 °F 41.0 °F 55% 29.96 in 10.0 mi ESE 13.8 mph 21.9 mph N/A   Overcast
8:34 AM 57.2 °F 41.0 °F 55% 29.96 in 10.0 mi ESE 16.1 mph - N/A   Overcast
8:55 AM 57.2 °F 39.2 °F 51% 29.97 in 10.0 mi ESE 15.0 mph - N/A   Overcast
9:14 AM 59.0 °F 39.2 °F 48% 29.96 in 10.0 mi ESE 17.3 mph 21.9 mph N/A   Overcast
9:34 AM 60.8 °F 39.2 °F 45% 29.95 in 10.0 mi ESE 17.3 mph 25.3 mph N/A   Overcast
9:55 AM 62.6 °F 39.2 °F 42% 29.95 in 10.0 mi SE 18.4 mph 23.0 mph N/A   Overcast
10:14 AM 62.6 °F 39.2 °F 42% - 10.0 mi SE 19.6 mph 25.3 mph N/A   Scattered Clouds
10:33 AM 64.4 °F 39.2 °F 40% 29.94 in 10.0 mi SE 18.4 mph 25.3 mph N/A   Clear
10:55 AM 64.4 °F 41.0 °F 42% 29.94 in 10.0 mi SE 18.4 mph - N/A   Clear
11:14 AM 64.4 °F 41.0 °F 42% 29.94 in 10.0 mi SE 18.4 mph - N/A   Clear
11:35 AM 66.2 °F 41.0 °F 40% 29.94 in 10.0 mi SE 15.0 mph - N/A   Clear
11:55 AM 66.2 °F 42.8 °F 43% 29.94 in 10.0 mi ESE 12.7 mph - N/A   Clear
12:14 PM 66.2 °F 42.8 °F 43% 29.93 in 10.0 mi SE 11.5 mph - N/A   Clear
12:35 PM 69.8 °F 42.8 °F 38% 29.93 in 10.0 mi SE 12.7 mph - N/A   Clear
12:55 PM 69.8 °F 42.8 °F 38% 29.92 in 10.0 mi SE 12.7 mph - N/A   Clear
1:14 PM 71.6 °F 42.8 °F 35% 29.92 in 10.0 mi SE 9.2 mph - N/A   Clear
1:35 PM 71.6 °F 44.6 °F 38% 29.91 in 10.0 mi East 4.6 mph - N/A   Clear
2:14 PM 73.4 °F 48.2 °F 41% 29.90 in 10.0 mi SE 9.2 mph - N/A   Scattered Clouds
2:34 PM 73.4 °F 50.0 °F 44% 29.90 in 10.0 mi South 11.5 mph - N/A   Overcast
2:54 PM 73.4 °F 51.8 °F 47% 29.89 in 10.0 mi South 9.2 mph - N/A   Mostly Cloudy
3:15 PM 73.4 °F 51.8 °F 47% 29.89 in 10.0 mi SSE 11.5 mph 16.1 mph N/A   Mostly Cloudy
3:34 PM 73.4 °F 51.8 °F 47% 29.89 in 10.0 mi SSE 13.8 mph 17.3 mph N/A   Overcast
3:54 PM 73.4 °F 51.8 °F 47% 29.89 in 10.0 mi SSE 12.7 mph - N/A   Overcast
4:15 PM 73.4 °F 50.0 °F 44% 29.88 in 10.0 mi South 15.0 mph - N/A   Overcast
4:34 PM 73.4 °F 50.0 °F 44% 29.88 in 10.0 mi SSE 12.7 mph - N/A   Overcast
4:54 PM 73.4 °F 50.0 °F 44% 29.88 in 10.0 mi SSE 10.4 mph - N/A   Overcast
5:15 PM 73.4 °F 50.0 °F 44% 29.88 in 10.0 mi SSE 11.5 mph - N/A   Overcast
5:34 PM 73.4 °F 51.8 °F 47% 29.88 in 10.0 mi South 10.4 mph - N/A   Overcast
5:54 PM 71.6 °F 51.8 °F 50% 29.88 in 10.0 mi South 12.7 mph - N/A   Overcast
6:15 PM 71.6 °F 51.8 °F 50% 29.88 in 10.0 mi SSE 11.5 mph - N/A   Overcast
6:34 PM 71.6 °F 51.8 °F 50% 29.88 in 10.0 mi South 9.2 mph - N/A   Overcast
6:54 PM 71.6 °F 50.0 °F 46% 29.88 in 10.0 mi South 13.8 mph - N/A   Mostly Cloudy
7:15 PM 71.6 °F 50.0 °F 46% 29.88 in 10.0 mi South 10.4 mph - N/A   Overcast
7:34 PM 71.6 °F 50.0 °F 46% 29.88 in 10.0 mi South 13.8 mph - N/A   Overcast
7:54 PM 69.8 °F 50.0 °F 49% 29.88 in 10.0 mi South 10.4 mph - N/A   Overcast
8:15 PM 69.8 °F 50.0 °F 49% 29.88 in 10.0 mi SSE 10.4 mph - N/A   Overcast
8:34 PM 69.8 °F 50.0 °F 49% 29.87 in 10.0 mi South 12.7 mph - N/A   Overcast
8:54 PM 68.0 °F 51.8 °F 56% 29.88 in 10.0 mi SSE 10.4 mph - N/A   Overcast
9:15 PM 66.2 °F 51.8 °F 60% 29.88 in 10.0 mi SSE 12.7 mph - N/A   Mostly Cloudy
9:34 PM 64.4 °F 51.8 °F 64% 29.88 in 10.0 mi SSE 9.2 mph - N/A   Mostly Cloudy
9:55 PM 66.2 °F 51.8 °F 60% 29.90 in 10.0 mi SSE 13.8 mph - N/A   Overcast
10:15 PM 64.4 °F 51.8 °F 64% 29.90 in 10.0 mi SE 15.0 mph - N/A   Overcast
10:34 PM 64.4 °F 51.8 °F 64% 29.91 in 10.0 mi SSE 11.5 mph - N/A   Overcast
10:55 PM 64.4 °F 51.8 °F 64% 29.91 in 10.0 mi SSE 13.8 mph - N/A   Overcast
11:15 PM 64.4 °F 53.6 °F 68% 29.91 in 10.0 mi South 9.2 mph - N/A   Overcast
11:34 PM 64.4 °F 53.6 °F 68% 29.90 in 10.0 mi South 9.2 mph - N/A   Overcast
11:55 PM 64.4 °F 53.6 °F 68% 29.90 in 10.0 mi South 10.4 mph - N/A   Overcast